[Iaude] MPEC T176: 2023 TZ6 [a=1.74,e=0.48,i=13.9,H=26.3]
    mpec at marsden.cfa.harvard.edu 
    mpec at marsden.cfa.harvard.edu
       
    Thu Oct 12 01:53:32 EDT 2023
    
    
  
M.P.E.C. 2023-T176                             Issued 2023 October 12, 05:51 UT
     The Minor Planet Electronic Circulars contain information on unusual
         minor planets, routine data on comets and natural satellites,
         and occasional editorial announcements.  They are published
    on behalf of Division F of the International Astronomical Union by the
          Minor Planet Center, Smithsonian Astrophysical Observatory,
                          Cambridge, MA 02138, U.S.A.
			  
             Prepared using the Tamkin Foundation Computer Network
                              MPC at CFA.HARVARD.EDU
            URL https://www.minorplanetcenter.net/    ISSN 1523-6714
                                    2023 TZ6                                    
Observations:
     K23T06Z  C2023 10 09.35120701 19 27.875+22 31 08.50         20.57GVET176F52
     K23T06Z*1C2023 10 11.26438901 57 53.075+16 11 02.58         20.03GVET176G96
     K23T06Z 1C2023 10 11.27153701 58 03.054+16 09 11.66         19.91GVET176G96
     K23T06Z 1C2023 10 11.27669801 58 10.222+16 07 50.88         20.30GVET176G96
     K23T06Z 1C2023 10 11.28185701 58 17.429+16 06 30.53         20.51GVET176G96
     K23T06Z  C2023 10 11.29689301 58 37.584+16 02 30.61         20.4 GVET176H01
     K23T06Z  C2023 10 11.30013101 58 42.117+16 01 39.57         20.7 GVET176H01
     K23T06Z  C2023 10 11.31120301 58 57.597+15 58 45.02         19.9 GVET176H01
     K23T06Z KC2023 10 11.31639501 59 05.672+15 57 28.15         20.30GVET176I52
     K23T06Z  C2023 10 11.31754401 59 06.479+15 57 04.30         19.9 GVET176H01
     K23T06Z KC2023 10 11.31772901 59 07.534+15 57 06.62         20.25GVET176I52
     K23T06Z KC2023 10 11.31905701 59 09.424+15 56 46.10         20.02GVET176I52
     K23T06Z KC2023 10 11.32037401 59 11.252+15 56 25.01         19.77GVET176I52
     K23T06Z KB2023 10 11.87614102 13 52.64 +13 15 21.7          20.2 GVET176I93
     K23T06Z KB2023 10 11.88116502 14 00.79 +13 13 48.0          19.7 GVET176I93
     K23T06Z KB2023 10 11.88614002 14 08.88 +13 12 16.0                VET176I93
     K23T06Z KC2023 10 11.89616 02 14 23.76 +13 09 16.7          20.3 GVET176104
     K23T06Z KC2023 10 11.90481 02 14 37.68 +13 06 34.7          19.9 GVET176104
     K23T06Z KC2023 10 12.06478502 19 01.17 +12 15 11.8          19.0 GXET176958
     K23T06Z KC2023 10 12.07083102 19 11.22 +12 13 11.0          19.1 GXET176958
     K23T06Z KC2023 10 12.07687202 19 21.32 +12 11 11.0          19.2 GXET176958
Observer details:
104 San Marcello Pistoiese.  Observers P. Bacci, M. Maestripieri.  Measurer P.
    Bacci.  0.60-m f/4.0 reflector + CCD.
958 Observatoire de Dax.  Observers P. Dupouy, J. B. de Vanssay.  Measurer P.
    Dupouy.  0.43-m f/2.7 Reflector + CCD.
F52 Pan-STARRS 2, Haleakala.  Observers J. Bulger, T. Lowe, P. Minguez, A.
    Schultz, I. Smith.  Measurers K. Chambers, T. de Boer, J. Fairlamb, H.
    Gao, M. Huber, C.-C. Lin, E. Magnier, Y. Ramanjooloo, R. Wainscoat, R.
    Weryk.  1.8-m Ritchey-Chretien + CCD.
G96 Mt. Lemmon Survey.  Observer D. Rankin.  Measurers E. C. Beshore, D. Fay,
    J. B. Fazekas, D. C. Fuls, A. R. Gibbs, A. D. Grauer, H. Groeller, J. K.
    Hogan, R. A. Kowalski, S. M. Larson, G. J. Leonard, D. Rankin, R. L.
    Seaman, F. C. Shelly, K. W. Wierzchos.  1.5-m reflector + 10K CCD.
H01 Magdalena Ridge Observatory, Socorro.  Observers W. H. Ryan, E. V. Ryan.
    Measurer W. H. Ryan.  2.4-m f/8.9 Ritchey-Chretien + CCD.
I52 Steward Observatory, Mt. Lemmon Station.  Observer J. B. Fazekas.
    Measurers E. C. Beshore, D. Fay, J. B. Fazekas, D. C. Fuls, A. R. Gibbs,
    A. D. Grauer, H. Groeller, J. K. Hogan, R. A. Kowalski, S. M. Larson, G.
    J. Leonard, D. Rankin, R. L. Seaman, F. C. Shelly, K. W. Wierzchos.  1.0-m
    prime focus + CCD.
I93 St Pardon de Conques.  Observer F. Losse.  0.40-m f/3.7 reflector + CMO.
Orbital elements:
2023 TZ6                                                 Earth MOID = 0.0240 AU
Epoch 2023 Sept. 13.0 TT = JDT 2460200.5                Veres                   
M 330.25496              (2000.0)            P               Q                  
n   0.42964735     Peri.  230.98860     +0.35654428     -0.93115404             
a   1.7393806      Node   198.56524     +0.91407850     +0.36456893             
e   0.4766479      Incl.   13.87380     +0.19322700     -0.00645343             
P   2.29           H   26.36          G   0.15           U   9                  
Residuals in seconds of arc
231009 F52  0.0   0.0     231011 H01  0.2+  0.1+    231011 I93  0.0   0.3-
231011 G96  0.4-  0.3+    231011 I52  0.0   0.1+    231011 I93  0.1-  0.0
231011 G96  0.0   0.2+    231011 H01  0.2+  0.2-    231011 104  0.8+  0.3+
231011 G96  0.3-  0.3-    231011 I52  0.2-  0.3-    231011 104  0.1-  0.1+
231011 G96  0.1-  0.3-    231011 I52  0.3+  0.2+    231012 958  1.7-  0.2+
231011 H01  0.1+  0.1+    231011 I52  0.0   0.0     231012 958  1.3-  0.8-
231011 H01  0.2+  0.0     231011 I93  0.4+  0.2+    231012 958  0.3-  0.7-
Ephemeris:
2023 TZ6                 a,e,i = 1.74, 0.48, 14                  q = 0.9103
Date    TT    R. A. (2000) Decl.     Delta      r    Elong.  Phase     V
2023 09 12    23 34 07.5 +31 36 47   0.2578  1.2240   143.7    29.1    25.1
...
2023 09 27    23 54 50.8 +31 56 51   0.1382  1.1233   149.1    27.3    23.5
...
2023 10 05    00 30 41.8 +28 51 23   0.07990 1.0734   155.4    22.8    22.1
...
2023 10 11    01 51 30.2 +17 18 25   0.04164 1.0387   164.1    15.3    20.4
2023 10 12    02 17 10.1 +12 38 39   0.03664 1.0332   161.8    17.6    20.2
2023 10 13    02 48 42.0 +06 27 05   0.03253 1.0277   155.6    23.7    20.1
...
2023 10 19    07 06 24.7 -34 45 14   0.03940 0.9969    89.8    87.9    22.4
...
2023 10 27    09 24 55.4 -39 41 45   0.08897 0.9618    66.4   108.8    25.1
...
2023 11 11    10 27 42.1 -38 30 04   0.1910  0.9189    62.8   106.5    26.5
M. P. C. Staff               (C) Copyright 2023 MPC           M.P.E.C. 2023-T176
    
    
More information about the Iaude
mailing list